Showing default

GLOBALSTAR M043, 25874

Orbit data source: Space-Track

GLOBALSTAR M043, 25874 is a payload satellite owned by Globalstar (US) in LEO that was launched on Sun, 25 Jul 1999 UTC via a DELTA 7420-10C launch vehicle from the Air Force Eastern Test Range (AFETR). Payload-class satellites include a variety of spacecraft equipped with specific instruments for various scientific and technological missions. These include communications satellites like Starlink; space stations such as the ISS; scientific satellites like the Hubble; Earth observation satellites from companies like Planet Labs, Umbra, and HawkEye 360; GPS; miniature CubeSats for education and research; and military/defense satellites.

Loading next visibility...
Identifier
25874, 1999-041C
Orbit
LEO
Country
Flag of UnknownUnknown / GLOB
Related business
Manufacturer
SS/Loral
Mission
Non-operational Commercial Communications
Bus & Motor
LS-400, LS-400 AOCS
Mass
450 kg wet, 380 kg dry
Launch date (UTC)
1999-07-25 (26 years ago)
Launch vehicle
DELTA 7420-10C
Launch site
Air Force Eastern Test Range (AFETR)
Object type
Payload
Rocket body
Debris
Shape & HBR
Box + 2 Pan, 6.0 m
Radar Cross Section
5.587 m², Large (>1 m²)

Expand to show TLE details & history
Last TLE update: 12 hours ago

TLE from 12 hours ago
0 GLOBALSTAR M043
1 25874U 99041C   25258.20637701 -.00000047  00000-0  63871-3 0  9997
2 25874  51.9372 233.4768 0013489 103.4806 270.8393 11.25696439133011
Epoch: 2025-09-15T04:57Z
TLE epoch observation values (Epoch: 2025-09-15T04:57:10.973Z)
Latitude
11.10253°
Longitude
173.56498°
Altitude
2,031.436 km
Speed
6.887 km/s
True Right ascension
16h 09m 06s
True Declination
11° 02' 51"
Sunlit
Object was in daylight at epoch
Visualization orbit readout
Latitude
Unknown
Longitude
Unknown
Altitude
Unknown
Speed
Unknown
Apparent Right ascension
Unknown
Apparent Declination
Unknown
Sunlit
N/A
Visualization observer readout
Local Sidereal Time
10:05:19
Azimuth
Unknown
Elevation
Unknown
Doppler factor
Unknown
Orbital elements
Apogee altitude
2,043.418 km
Perigee altitude
2,020.729 km
Semi-major axis
8,410.211 km
Eccentricity
0.00135
Inclination
51.9372°
RAAN
233.4768°
Arg. of periapsis
103.4806°
True anomaly
270.68474°
Mean anomaly
270.8393°
Eccentric anomaly
270.76202°
Mean motion
2.81406 °/min
Orbital period
127.93 mins
BSTAR
0.00063871
Loading maneuver chart data...
Computing Atmospheric mass density...
Loading historical data...
Loading historical data...
Loading historical data...
Loading historical data...
Loading historical data...
Loading historical data...
Loading historical data...
Other satellites on launch #41 in the year 1999 (1999-07-25 UTC)

Documentation

Showing up to 5 results
|